Wind_Speed
12 12 13 14 14 15 15 16 17 18 19 21 22 23 23 23 23 23 23 23 23 23 24 24 24 24 23 23 23 23 23 23 23 24 23 23 23 24 25 26 26 27 27
13 12 12 14 14 14 15 16 16 18 19 20 21 22 23 24 24 24 24 25 24 24 25 25 26 26 26 26 26 26 26 26 25 26 26 26 27 27 28 29 29 29 30
13 12 13 13 13 13 14 15 17 18 19 20 20 20 22 23 24 24 24 25 24 25 26 26 27 27 28 28 28 28 29 28 28 28 29 30 31 31 32 32 33 33 34
14 14 14 14 14 14 14 16 16 17 19 19 19 20 21 23 23 24 25 25 25 26 27 28 28 28 29 29 30 30 30 31 31 32 32 33 33 34 34 34 34 34 35
14 15 15 15 15 15 16 15 15 17 18 18 19 20 21 22 22 23 25 25 25 26 27 28 29 30 31 30 30 31 31 31 32 33 33 34 35 35 35 36 37 37 37
15 15 15 16 15 16 15 14 14 14 15 17 18 19 20 21 21 22 24 25 25 26 27 28 28 29 29 31 32 32 32 32 33 33 34 34 35 35 36 37 38 39 40
16 15 15 15 15 15 15 15 14 15 15 16 18 19 19 19 19 21 22 23 24 26 27 27 27 28 30 31 32 32 32 33 34 34 35 35 37 38 38 39 40 41 41
15 16 16 16 16 15 15 16 16 17 17 17 17 17 18 19 20 21 22 22 22 23 24 26 27 28 30 30 30 31 32 33 34 35 36 37 39 39 40 41 41 42 43
16 15 16 17 18 17 16 16 17 17 18 18 19 19 19 19 20 21 21 22 22 23 24 25 27 28 30 31 31 32 33 34 35 36 37 38 39 40 42 42 42 43 45
17 16 17 17 18 18 18 18 18 19 19 20 20 20 20 21 22 22 23 23 23 24 25 26 27 29 30 30 32 33 34 35 36 37 38 39 40 41 42 43 44 45 47
18 17 17 17 18 19 19 19 19 19 19 20 20 20 22 23 23 23 23 23 24 25 25 26 28 29 30 31 32 34 35 36 37 38 40 41 42 43 44 44 45 47 48
19 19 18 18 19 19 19 19 19 19 20 20 21 21 21 21 22 23 23 24 24 25 26 27 28 29 30 32 34 35 36 36 38 39 40 41 42 43 45 46 47 48 49
19 19 19 18 19 20 20 20 20 21 21 22 22 22 23 22 23 23 24 24 25 25 27 28 29 30 32 33 34 35 36 37 38 40 41 42 43 44 45 46 47 48 49
20 20 19 19 19 20 20 21 22 22 23 23 23 23 23 23 23 23 24 24 25 26 28 29 31 32 34 35 36 36 38 39 40 41 42 43 44 45 46 47 48 48 48
19 19 20 20 21 21 21 21 21 22 22 22 22 23 22 22 23 24 25 25 26 28 29 31 32 33 35 36 37 38 39 40 42 42 43 44 44 45 44 45 45 45 45
19 19 20 20 20 20 20 19 20 20 21 21 21 22 23 24 24 25 25 26 27 29 31 32 33 34 35 36 38 39 40 41 42 44 43 43 43 43 43 42 42 42 43
19 19 19 19 19 18 18 19 20 20 21 21 21 22 24 25 25 26 27 29 30 31 33 34 36 37 37 39 40 41 41 42 43 43 43 42 42 42 41 41 41 41 41
19 19 19 19 19 19 19 20 21 21 22 23 23 24 25 26 27 28 30 31 32 33 35 36 37 37 39 39 40 40 41 41 41 41 41 41 40 40 40 40 41 41 41
18 18 19 19 19 19 19 19 20 21 22 23 24 25 26 27 28 29 30 31 33 34 35 36 37 37 38 38 38 39 40 40 40 40 40 40 40 40 40 41 41 41 41
18 18 19 20 19 18 18 19 20 21 22 23 24 25 27 28 29 30 31 33 34 34 35 35 36 36 36 37 38 38 39 39 40 39 39 39 39 40 40 40 40 40 39
18 18 19 19 19 20 20 21 22 23 24 25 26 27 28 29 31 32 33 33 34 34 34 35 35 36 37 37 38 38 38 38 38 38 38 38 38 38 38 38 37 37 37
18 18 19 19 20 21 21 22 23 24 25 26 27 28 29 30 31 32 32 33 33 34 34 35 35 36 36 36 36 37 37 37 37 37 37 37 37 36 36 35 35 34 34
18 18 19 20 21 22 23 23 24 25 26 27 28 28 29 30 31 31 32 33 33 34 34 35 35 35 35 35 35 35 35 35 35 35 35 35 34 34 33 32 32 31 30
17 19 20 21 22 23 24 24 24 25 26 27 28 29 30 31 32 32 33 33 33 33 33 34 34 34 34 34 34 34 33 33 33 33 33 33 32 30 30 29 29 28 27
19 20 21 22 23 23 24 24 25 26 27 29 30 31 31 32 32 33 33 33 33 32 32 33 33 33 33 33 33 33 32 32 32 31 30 30 28 28 27 26 26 25 25
20 21 21 22 23 24 24 26 27 28 29 30 30 31 32 32 32 32 32 33 33 32 32 32 32 32 32 31 31 31 30 30 29 28 27 26 26 25 24 24 23 23 22
Wind_Direction
262 263 256 252 255 255 249 246 245 242 241 241 242 242 242 243 244 244 246 248 250 251 252 253 256 257 260 262 265 266 266 268 270 272 275 275 274 274 274 275 276 277 278
261 261 260 256 256 255 250 248 247 243 242 244 243 243 242 242 243 246 249 250 253 254 254 254 256 259 261 263 265 266 268 269 270 272 275 275 276 276 276 277 277 278 279
260 261 261 261 257 254 255 254 251 245 245 244 243 245 243 242 245 248 251 252 254 257 257 258 261 262 262 264 265 267 269 270 270 272 273 274 276 277 277 277 278 278 279
258 260 263 258 257 257 259 258 254 248 248 246 243 245 245 246 246 249 251 253 255 258 259 260 262 263 263 265 265 267 269 270 271 273 274 275 277 277 278 278 279 280 280
260 260 262 263 261 259 258 257 257 251 247 247 246 245 245 246 248 251 252 254 257 260 260 261 263 264 265 264 266 267 270 271 272 274 275 276 277 277 278 278 279 279 281
263 261 261 261 259 260 255 252 254 254 254 254 251 249 250 251 253 254 255 256 259 260 260 263 266 268 268 267 268 269 271 271 273 275 277 278 278 279 281 281 281 280 280
264 263 261 261 257 255 253 252 254 254 255 257 256 256 256 256 255 256 258 260 261 262 261 263 266 269 270 271 270 271 272 273 274 277 279 280 281 281 281 281 282 282 282
263 259 259 258 257 258 255 253 255 256 255 256 260 261 260 260 260 262 265 266 269 268 267 267 268 270 271 273 274 275 275 276 276 279 280 280 281 281 282 282 282 282 283
265 263 262 259 256 256 256 256 258 259 257 257 260 262 262 263 264 268 269 270 272 272 272 273 275 275 274 275 277 277 278 279 280 281 281 281 282 283 283 284 284 285 284
263 263 262 260 256 255 257 258 260 262 262 260 260 261 263 265 266 270 271 272 273 273 273 276 277 277 278 279 280 281 281 282 282 283 284 286 286 286 286 286 286 286 285
261 261 259 260 260 258 258 260 262 264 263 262 263 266 268 268 269 271 272 275 276 276 277 278 280 281 281 282 283 283 284 285 285 286 286 287 287 287 287 286 287 287 287
260 261 261 261 261 260 259 260 260 261 263 264 265 268 272 272 273 274 276 278 278 279 281 282 283 284 285 285 286 286 286 286 287 289 289 289 289 289 289 289 289 289 289
259 261 264 263 261 260 260 261 261 263 265 267 268 269 271 273 275 276 278 280 280 280 281 284 285 286 286 287 288 288 288 290 290 291 291 292 292 292 291 291 292 292 292
258 259 261 262 262 262 262 261 261 264 267 270 271 273 275 275 276 277 278 280 280 281 283 284 286 287 288 289 290 290 291 292 292 293 293 293 293 293 293 293 294 294 294
258 259 261 261 262 264 265 265 265 267 269 272 273 275 277 277 278 278 279 281 282 284 286 287 289 290 290 291 291 292 292 292 293 293 293 293 294 295 295 295 296 295 295
255 258 260 261 263 266 268 269 270 270 271 272 274 276 278 279 280 282 285 286 287 289 291 292 293 293 294 294 293 294 295 295 296 296 296 296 296 296 296 296 296 296 296
255 258 261 262 264 266 270 271 271 272 273 274 277 279 280 281 282 285 288 289 291 292 293 294 295 295 295 296 296 296 297 297 298 298 297 297 296 296 296 296 296 297 297
256 260 263 265 267 267 269 271 274 276 276 278 280 281 282 284 286 288 290 292 293 294 295 296 296 296 297 298 298 298 298 298 298 298 298 297 297 297 296 296 297 297 298
258 262 264 266 268 269 270 273 275 277 278 279 280 282 285 288 290 292 294 295 296 297 298 298 299 299 299 300 299 299 299 299 299 299 299 299 298 298 297 297 297 297 297
260 263 265 266 267 269 273 275 277 280 282 284 286 289 291 293 294 295 296 297 299 300 300 301 301 301 301 301 301 301 301 301 301 301 300 300 300 299 298 298 298 298 297
261 263 266 266 268 271 273 275 279 282 284 287 289 291 295 296 297 297 298 299 300 301 302 303 303 303 303 303 303 303 303 303 302 302 301 301 301 301 300 300 299 299 299
262 265 268 269 273 274 276 280 283 285 288 290 292 295 296 297 298 299 300 301 302 302 302 303 303 303 303 303 304 304 304 304 304 304 304 304 303 303 302 301 301 301 300
263 267 271 273 277 278 280 283 286 288 290 292 293 295 296 298 299 301 302 302 302 302 302 303 304 304 305 306 306 306 307 307 307 307 307 306 305 305 304 304 303 303 303
270 273 275 277 280 282 285 287 288 290 292 293 295 296 297 298 300 301 302 302 301 302 303 304 304 305 306 307 307 307 308 308 309 309 308 308 307 306 306 305 305 305 304
276 279 281 282 284 285 287 288 290 292 293 295 296 296 297 298 299 300 301 301 301 301 302 303 304 305 306 306 306 307 308 309 309 310 310 310 310 309 308 308 307 307 306
281 283 284 285 287 288 290 292 293 294 295 296 297 297 298 298 299 299 299 300 300 301 302 304 304 305 306 306 307 308 309 310 311 312 313 312 313 313 313 312 312 311 310
Height
5845 5845 5844 5845 5845 5845 5846 5847 5848 5850 5851 5853 5855 5857 5858 5860 5862 5863 5865 5866 5867 5868 5869 5870 5871 5872 5873 5873 5874 5874 5874 5874 5874 5873 5872 5871 5871 5870 5869 5868 5867 5866 5865
5842 5842 5841 5841 5842 5842 5843 5844 5845 5846 5847 5849 5850 5852 5853 5855 5857 5858 5860 5861 5862 5862 5864 5865 5866 5867 5867 5868 5868 5868 5868 5868 5867 5867 5866 5865 5864 5863 5862 5861 5860 5859 5857
5838 5839 5839 5839 5839 5839 5840 5840 5841 5842 5843 5844 5845 5847 5848 5850 5851 5853 5854 5855 5856 5857 5858 5859 5860 5860 5861 5861 5861 5861 5861 5861 5860 5860 5859 5858 5857 5856 5854 5853 5852 5850 5849
5835 5836 5836 5836 5836 5836 5837 5837 5837 5838 5839 5839 5840 5842 5843 5844 5846 5847 5848 5849 5850 5851 5852 5853 5853 5853 5854 5854 5854 5854 5853 5853 5853 5852 5851 5850 5849 5847 5846 5844 5843 5841 5840
5832 5832 5833 5833 5833 5833 5834 5834 5834 5834 5834 5835 5836 5837 5838 5839 5840 5841 5842 5843 5844 5845 5845 5846 5846 5846 5846 5846 5846 5846 5846 5845 5844 5843 5843 5842 5840 5838 5837 5835 5833 5832 5830
5828 5829 5829 5829 5830 5830 5830 5830 5831 5831 5831 5831 5832 5833 5833 5834 5835 5836 5836 5837 5838 5838 5838 5838 5839 5839 5839 5839 5838 5838 5837 5837 5836 5835 5833 5832 5831 5829 5827 5825 5823 5822 5820
5825 5825 5825 5825 5826 5826 5827 5827 5827 5827 5828 5828 5828 5828 5829 5829 5830 5830 5831 5831 5831 5831 5831 5831 5831 5831 5831 5831 5830 5829 5829 5828 5827 5826 5824 5823 5821 5820 5818 5815 5813 5811 5809
5821 5821 5821 5822 5822 5823 5823 5824 5824 5824 5824 5825 5825 5824 5824 5825 5825 5825 5825 5825 5825 5825 5824 5824 5824 5824 5823 5822 5822 5821 5820 5819 5818 5817 5815 5814 5812 5810 5807 5805 5802 5800 5797
5817 5817 5818 5818 5818 5819 5819 5820 5820 5820 5820 5820 5820 5820 5820 5820 5820 5820 5820 5819 5819 5819 5818 5817 5817 5816 5815 5814 5814 5813 5812 5811 5809 5807 5805 5803 5801 5798 5796 5793 5790 5788 5785
5813 5813 5813 5813 5814 5814 5815 5815 5816 5816 5816 5816 5815 5815 5815 5815 5815 5814 5814 5813 5812 5812 5811 5810 5810 5809 5808 5807 5805 5804 5803 5801 5799 5797 5795 5792 5790 5787 5784 5782 5779 5776 5772
5808 5808 5809 5809 5810 5810 5810 5811 5811 5811 5811 5811 5811 5810 5810 5810 5809 5809 5808 5807 5806 5805 5804 5803 5802 5801 5800 5798 5797 5795 5793 5791 5789 5787 5784 5782 5779 5776 5772 5769 5766 5762 5759
5803 5804 5804 5805 5805 5805 5805 5806 5806 5806 5806 5806 5805 5805 5805 5804 5804 5803 5802 5802 5800 5799 5798 5797 5795 5794 5792 5790 5788 5787 5784 5782 5779 5776 5773 5770 5767 5763 5760 5756 5752 5748 5744
5798 5799 5799 5800 5800 5800 5800 5801 5801 5801 5801 5800 5800 5799 5799 5798 5797 5797 5796 5795 5793 5792 5791 5789 5788 5786 5784 5782 5779 5777 5774 5772 5768 5765 5762 5758 5754 5751 5747 5743 5739 5735 5730
5793 5794 5794 5794 5795 5795 5794 5795 5795 5795 5795 5794 5794 5793 5792 5792 5791 5790 5789 5788 5787 5785 5784 5782 5780 5777 5775 5772 5769 5767 5764 5761 5757 5754 5750 5746 5742 5738 5734 5730 5725 5721 5716
5788 5789 5789 5789 5789 5789 5789 5789 5789 5789 5789 5788 5788 5787 5786 5785 5785 5784 5782 5781 5779 5778 5775 5773 5771 5768 5765 5762 5759 5756 5753 5750 5746 5742 5738 5734 5730 5725 5721 5716 5712 5707 5703
5782 5783 5783 5784 5784 5783 5783 5783 5783 5783 5783 5782 5782 5781 5780 5779 5778 5776 5775 5773 5771 5769 5767 5764 5761 5758 5755 5752 5749 5745 5742 5738 5734 5730 5726 5721 5717 5713 5708 5704 5700 5696 5691
5777 5778 5778 5778 5778 5778 5778 5778 5778 5777 5777 5776 5775 5774 5773 5772 5771 5769 5767 5765 5763 5760 5758 5755 5752 5748 5745 5742 5738 5734 5730 5726 5722 5717 5713 5709 5705 5700 5696 5692 5688 5684 5680
5772 5773 5773 5773 5773 5773 5773 5772 5772 5771 5771 5770 5769 5768 5766 5765 5763 5761 5759 5756 5754 5751 5748 5745 5742 5738 5735 5731 5727 5723 5718 5714 5710 5705 5701 5697 5692 5689 5685 5680 5676 5672 5668
5767 5767 5768 5768 5767 5767 5767 5767 5766 5765 5764 5763 5762 5760 5759 5757 5754 5752 5750 5747 5745 5741 5738 5735 5731 5728 5724 5719 5715 5711 5707 5702 5698 5694 5689 5685 5681 5677 5673 5669 5665 5661 5656
5762 5762 5762 5762 5762 5762 5761 5761 5760 5759 5758 5757 5755 5753 5751 5749 5746 5744 5741 5738 5735 5732 5728 5725 5721 5717 5713 5709 5704 5700 5695 5691 5687 5682 5678 5673 5669 5665 5660 5656 5652 5648 5644
5757 5757 5757 5757 5757 5756 5755 5755 5754 5753 5751 5749 5747 5745 5743 5741 5738 5735 5732 5729 5725 5722 5718 5714 5711 5707 5702 5698 5694 5689 5685 5680 5676 5671 5667 5662 5658 5653 5649 5644 5640 5637 5633
5751 5751 5751 5751 5751 5750 5749 5748 5747 5745 5743 5742 5740 5737 5735 5732 5730 5726 5723 5719 5716 5712 5708 5704 5701 5696 5692 5688 5683 5679 5674 5670 5665 5661 5656 5651 5647 5643 5638 5634 5630 5626 5623
5746 5746 5745 5745 5745 5743 5742 5741 5739 5738 5736 5734 5732 5729 5727 5724 5721 5717 5714 5710 5706 5703 5699 5695 5691 5686 5682 5678 5673 5669 5665 5660 5655 5651 5646 5642 5637 5633 5629 5625 5621 5617 5614
5741 5740 5740 5739 5738 5737 5735 5733 5732 5730 5728 5726 5723 5721 5718 5715 5712 5708 5705 5701 5697 5693 5689 5685 5681 5677 5673 5669 5664 5660 5655 5651 5646 5642 5637 5633 5629 5624 5620 5617 5613 5610 5606
5735 5734 5733 5732 5731 5729 5728 5726 5724 5722 5719 5717 5714 5712 5709 5705 5702 5699 5695 5691 5688 5684 5680 5676 5672 5668 5664 5660 5655 5651 5647 5643 5638 5634 5629 5625 5621 5617 5613 5610 5606 5603 5600
5728 5727 5726 5725 5723 5721 5720 5718 5715 5713 5711 5708 5705 5702 5699 5696 5692 5689 5685 5682 5678 5674 5671 5667 5663 5659 5655 5651 5647 5643 5639 5635 5630 5626 5622 5618 5614 5611 5607 5604 5600 5597 5594